Flag for U.S.A. Weather past 2 weeks in Escondido, California, U.S.A.

Now
56 °F

Clear.


Feels Like: 56 °F
Forecast: 60 / 87 °F
Wind: No wind

Location: Ramona Airport

Current Time: Sep 1, 2014 at 4:25:10 AM

Latest Report: Sep 1, 2014 at 3:53 AM


Visibility: 9 mi

Pressure: 29.79 "Hg

Humidity: 87%

Dew point: 52 °F

Location of EscondidoLocation

Historic Weather in Escondido — Graph

°F

Escondido temperature yesterday

Maximum temperature yesterday: 93 °F (at 12:53 PM)
Minimum temperature yesterday: 57 °F (at 4:53 AM)
Average temperature yesterday: 75 °F

Past Weeks' High & Low Weather Summary

 TemperatureHumidityPressure
High96 °F (Aug 30, 1:53 PM)100% (Aug 24, 5:53 AM)30.02 "Hg (Aug 24, 5:53 AM)
Low47 °F (Aug 24, 4:53 AM)16% (Aug 30, 2:53 PM)29.74 "Hg (Aug 30, 4:53 PM)
Average73 °F55%29.88 "Hg
* Reported Aug 17 2:53 AM — Sep 1 2:53 AM, Escondido, Weather by CustomWeather, © 2014

Note: Actual official high and low records may vary slightly from our data, if they occured in-between our weather recording intervals... More about our weather records

Advertising

Escondido weather history for previous 24 hours

 ConditionsComfort  
Time TempWeatherWind HumidityBarometerVisibility
2:53 AM
Sep 1
59 °FClear.No wind84%29.80 "Hg10 mi
1:53 AM59 °FClear.No wind81%29.80 "Hg10 mi
12:53 AM60 °FClear.No wind80%29.80 "Hg10 mi
11:53 PM
Aug 31
64 °FClear.No wind81%29.81 "Hg10 mi
10:53 PM65 °FClear.No wind70%29.81 "Hg10 mi
9:53 PM68 °FClear.No wind73%29.80 "Hg10 mi
8:53 PM70 °FClear.No wind68%29.80 "Hg10 mi
7:53 PM72 °FSunny.6 mph68%29.80 "Hg10 mi
6:53 PM79 °FSunny.7 mph54%29.79 "Hg10 mi
5:53 PM84 °FSunny.12 mph43%29.78 "Hg10 mi
4:53 PM88 °FSunny.10 mph34%29.78 "Hg10 mi
3:53 PM91 °FSunny.13 mph25%29.77 "Hg10 mi
2:53 PM93 °FSunny.13 mph26%29.78 "Hg10 mi
1:53 PM92 °FSunny.13 mph32%29.79 "Hg10 mi
12:53 PM93 °FSunny.12 mph21%29.80 "Hg10 mi
11:53 AM91 °FSunny.9 mph26%29.81 "Hg10 mi
10:53 AM91 °FSunny.10 mph17%29.82 "Hg10 mi
9:53 AM88 °FSunny.8 mph18%29.82 "Hg10 mi
8:53 AM82 °FSunny.N/A31%29.81 "Hg10 mi
7:53 AM70 °FSunny.No wind46%29.82 "Hg10 mi
6:53 AM59 °FClear.No wind72%29.81 "Hg10 mi
5:53 AM57 °FClear.3 mph72%29.80 "Hg10 mi
4:53 AM57 °FClear.No wind72%29.78 "Hg10 mi
Weather by CustomWeather, © 2014

See weather overviewHow to use our weather pages